Tracking 19485 objects as of 21-Jan-2019
HD Live streaming from Space Station
objects crossing your sky now

OSCAR 25

Track OSCAR 25 now!
10-day predictions
OSCAR 25 is classified as:


NORAD ID: 19419
Int'l Code: 1988-074A
Perigee: 1,037.1 km
Apogee: 1,179.3 km
Inclination: 90.0 °
Period: 107.3 minutes
Semi major axis: 7479 km
RCS: 1.4853 m2 (large)
Launch date: August 25, 1988
Source: United States (US)
Launch site: AIR FORCE WESTERN TEST RANGE (AFWTR)
aabbcc
Your satellite tracking list
Your tracking list is empty




NASA's NSSDC Master Catalog

Two Line Element Set (TLE):
1 19419U 88074A   19020.91485392 +.00000030 +00000-0 +37769-4 0  9993
2 19419 089.9877 018.2458 0095077 226.0513 193.1396 13.42203379488623
Source of the keplerian elements: AFSPC